This is the latest recevied weather packets stored in our database for station/object KD4EG. If no packets are shown the sender has not sent any weather packets the latest 10 day(s).
| Time | Temp. | Humidity | Pressure | Rain* | Wind** | Luminosity | Snow |
|---|---|---|---|---|---|---|---|
| 1777932236 | 25° C | 41% | 1013.9 hPa | 0 mm | - | 233 W/m² | - |
| 1777931933 | 25° C | 41% | 1014 hPa | 0 mm | - | 238 W/m² | - |
| 1777931630 | 25° C | 40% | 1014 hPa | 0 mm | - | 252 W/m² | - |
| 1777931326 | 25° C | 41% | 1013.9 hPa | 0 mm | - | 269 W/m² | - |
| 1777931023 | 25.56° C | 40% | 1014 hPa | 0 mm | - | 283 W/m² | - |
| 1777930720 | 25.56° C | 41% | 1013.9 hPa | 0 mm | - | 293 W/m² | - |
| 1777930415 | 25° C | 42% | 1014 hPa | 0 mm | - | 308 W/m² | - |
| 1777930113 | 25° C | 41% | 1014.2 hPa | 0 mm | - | 326 W/m² | - |
| 1777929809 | 25.56° C | 41% | 1014.1 hPa | 0 mm | - | 349 W/m² | - |
| 1777929507 | 25° C | 42% | 1014.1 hPa | 0 mm | - | 357 W/m² | - |
| 1777929202 | 25.56° C | 42% | 1014.1 hPa | 0 mm | - | 347 W/m² | - |
| 1777928900 | 25° C | 42% | 1013.7 hPa | 0 mm | - | 374 W/m² | - |
| 1777928597 | 24.44° C | 43% | 1014 hPa | 0 mm | - | 372 W/m² | - |
| 1777928294 | 24.44° C | 43% | 1013.9 hPa | 0 mm | - | 366 W/m² | - |
| 1777927992 | 24.44° C | 43% | 1013.9 hPa | 0 mm | - | 385 W/m² | - |
| 1777927690 | 25° C | 43% | 1013.8 hPa | 0 mm | - | 415 W/m² | - |
| 1777927388 | 24.44° C | 44% | 1014 hPa | 0 mm | - | 457 W/m² | - |
| 1777927087 | 25° C | 42% | 1013.9 hPa | 0 mm | - | 514 W/m² | - |
| 1777926784 | 24.44° C | 44% | 1013.9 hPa | 0 mm | - | 571 W/m² | - |
| 1777926478 | 24.44° C | 44% | 1013.8 hPa | 0 mm | - | 418 W/m² | - |
| 1777926176 | 23.89° C | 44% | 1014 hPa | 0 mm | - | 327 W/m² | - |
| 1777925873 | 23.33° C | 45% | 1014.1 hPa | 0 mm | - | 327 W/m² | - |
| 1777925570 | 23.33° C | 45% | 1014.2 hPa | 0 mm | - | 225 W/m² | - |
| 1777925268 | 23.33° C | 45% | 1014.4 hPa | 0 mm | - | 260 W/m² | - |
| 1777924963 | 23.33° C | 44% | 1014.6 hPa | 0 mm | - | 288 W/m² | - |
* Rain latest hour (hover to see other rain measurements)
** Current wind speed in m/s (hover to see current wind gust speed)